South Paris, Maine, United States (04281)
Lat: 44.22N, Lon: 70.51W
Wx Zone: MEZ012
Local Info
Past Weather Observations for Tuesday, June 30, 2015

NOTE: This archive is for the closest National Weather Service station to South Paris. Information may differ from the station used for current weather conditions.

Click here for Long-term Archive

Time Weather Temperature Dewpoint Humidity Pressure Winds Precip Visibility
23:15
Overcast
63°F / 17°C 55°F / 13°C 77% 29.98 in
(1015 mb)
Calm - 10SM
22:55
Overcast
63°F / 17°C 55°F / 13°C 77% 29.98 in
(1015 mb)
SSE 3.5 mph
(SSE 6 kph)
- 10SM
22:35
Overcast
63°F / 17°C 55°F / 13°C 77% 29.98 in
(1015 mb)
Calm - 10SM
22:15
Overcast
63°F / 17°C 55°F / 13°C 77% 29.98 in
(1015 mb)
SE 3.5 mph
(SE 6 kph)
- 10SM
21:55
Overcast
64°F / 18°C 55°F / 13°C 73% 29.98 in
(1015 mb)
Calm - 10SM
21:35
Overcast
63°F / 17°C 55°F / 13°C 77% 29.98 in
(1015 mb)
SE 3.5 mph
(SE 6 kph)
- 10SM
21:15
Overcast
63°F / 17°C 55°F / 13°C 77% 29.98 in
(1015 mb)
SE 4.6 mph
(SE 7 kph)
- 10SM
20:55
Overcast
64°F / 18°C 55°F / 13°C 73% 29.98 in
(1015 mb)
SSE 3.5 mph
(SSE 6 kph)
- 10SM
20:35
Overcast
64°F / 18°C 55°F / 13°C 73% 29.98 in
(1015 mb)
SSE 4.6 mph
(SSE 7 kph)
- 10SM
20:15
Overcast
64°F / 18°C 55°F / 13°C 73% 29.98 in
(1015 mb)
SSE 5.8 mph
(SSE 9 kph)
- 10SM
19:55
Mostly Cloudy
64°F / 18°C 55°F / 13°C 73% 29.98 in
(1015 mb)
SSE 5.8 mph
(SSE 9 kph)
- 10SM
19:35
Partly Cloudy
66°F / 19°C 55°F / 13°C 68% 29.98 in
(1015 mb)
SSE 3.5 mph
(SSE 6 kph)
- 10SM
19:15
Mostly Cloudy
66°F / 19°C 57°F / 14°C 73% 29.95 in
(1014 mb)
SE 4.6 mph
(SE 7 kph)
- 10SM
18:35
Partly Cloudy
68°F / 20°C 57°F / 14°C 69% 29.95 in
(1014 mb)
SSE 5.8 mph
(SSE 9 kph)
- 10SM
18:15
Clear
70°F / 21°C 57°F / 14°C 64% 29.98 in
(1015 mb)
S 6.9 mph
(S 11 kph)
- 10SM
17:55
Clear
70°F / 21°C 57°F / 14°C 64% 29.95 in
(1014 mb)
S 10.4 mph
(S 17 kph)
- 10SM
17:35
Partly Cloudy
70°F / 21°C 57°F / 14°C 64% 29.95 in
(1014 mb)
S 5.8 mph
(S 9 kph)
- 10SM
17:15
Mostly Cloudy
72°F / 22°C 57°F / 14°C 61% 29.98 in
(1015 mb)
S 6.9 mph
(S 11 kph)
- 10SM
16:55
Clear
72°F / 22°C 57°F / 14°C 61% 29.98 in
(1015 mb)
S 8.1 mph
(S 13 kph)
- 10SM
16:35
Clear
72°F / 22°C 59°F / 15°C 65% 29.98 in
(1015 mb)
S 8.1 mph
(S 13 kph)
- 10SM
16:15
Clear
73°F / 23°C 61°F / 16°C 65% 29.98 in
(1015 mb)
S 10.4 mph
(S 17 kph)
- 10SM
15:55
Partly Cloudy
75°F / 24°C 61°F / 16°C 61% 29.98 in
(1015 mb)
S 8.1 mph
(S 13 kph)
- 10SM
15:35
Partly Cloudy
73°F / 23°C 61°F / 16°C 65% 29.98 in
(1015 mb)
S 11.5 mph
(S 19 kph)
- 10SM
15:15
Partly Cloudy
75°F / 24°C 57°F / 14°C 54% 29.98 in
(1015 mb)
S 11.5 mph
(S 19 kph)
- 10SM
14:55
Partly Cloudy
75°F / 24°C 57°F / 14°C 54% 29.98 in
(1015 mb)
SE 11.5 mph
(SE 19 kph)
- 10SM
14:35
Mostly Cloudy
75°F / 24°C 57°F / 14°C 54% 29.98 in
(1015 mb)
SSE 11.5 mph
(SSE 19 kph)
- 10SM
14:15
Partly Cloudy
75°F / 24°C 57°F / 14°C 54% 29.98 in
(1015 mb)
SSE 10.4 mph
(SSE 17 kph)
- 10SM
13:55
Clear
75°F / 24°C 57°F / 14°C 54% 29.98 in
(1015 mb)
S 5.8 mph
(S 9 kph)
- 10SM
13:35
Clear
75°F / 24°C 57°F / 14°C 54% 29.98 in
(1015 mb)
S 4.6 mph
(S 7 kph)
- 10SM
13:15
Clear
75°F / 24°C 54°F / 12°C 47% 29.98 in
(1015 mb)
Calm - 10SM
12:55
Partly Cloudy
77°F / 25°C 55°F / 13°C 47% 29.98 in
(1015 mb)
WNW 4.6 mph
(WNW 7 kph)
- 10SM
12:35
Partly Cloudy
77°F / 25°C 55°F / 13°C 47% 29.98 in
(1015 mb)
W 3.5 mph
(W 6 kph)
- 10SM
12:15
Partly Cloudy
75°F / 24°C 55°F / 13°C 50% 30.01 in
(1016 mb)
SSW 4.6 mph
(SSW 7 kph)
- 10SM
11:55
Partly Cloudy
75°F / 24°C 55°F / 13°C 50% 30.01 in
(1016 mb)
Calm - 10SM
11:35
Clear
75°F / 24°C 55°F / 13°C 50% 30.01 in
(1016 mb)
SW 3.5 mph
(SW 6 kph)
- 10SM
11:15
Clear
73°F / 23°C 54°F / 12°C 50% 30.01 in
(1016 mb)
NE 3.5 mph
(NE 6 kph)
- 10SM
10:55
Partly Cloudy
73°F / 23°C 55°F / 13°C 53% 30.01 in
(1016 mb)
Calm - 10SM
10:35
Partly Cloudy
73°F / 23°C 55°F / 13°C 53% 30.01 in
(1016 mb)
WNW 3.5 mph
(WNW 6 kph)
- 10SM
10:15
Partly Cloudy
72°F / 22°C 55°F / 13°C 57% 30.01 in
(1016 mb)
NE 3.5 mph
(NE 6 kph)
- 10SM
09:55
Clear
72°F / 22°C 55°F / 13°C 57% 30.01 in
(1016 mb)
Calm - 10SM
09:35
Clear
72°F / 22°C 55°F / 13°C 57% 30.01 in
(1016 mb)
NE 5.8 mph
(NE 9 kph)
- 10SM
09:15
Clear
70°F / 21°C 55°F / 13°C 60% 30.01 in
(1016 mb)
WNW 4.6 mph
(WNW 7 kph)
- 10SM
08:55
Clear
70°F / 21°C 55°F / 13°C 60% 30.01 in
(1016 mb)
Calm - 10SM
08:35
Clear
70°F / 21°C 55°F / 13°C 60% 30.01 in
(1016 mb)
Calm - 10SM
08:15
Clear
70°F / 21°C 55°F / 13°C 60% 30.01 in
(1016 mb)
Calm - 10SM
07:55
Clear
68°F / 20°C 57°F / 14°C 69% 30.01 in
(1016 mb)
Calm - 10SM
07:35
Clear
66°F / 19°C 57°F / 14°C 73% 30.01 in
(1016 mb)
Calm - 10SM
07:15
Partly Cloudy
64°F / 18°C 57°F / 14°C 78% 30.01 in
(1016 mb)
Calm - 10SM
06:55
Mostly Cloudy
64°F / 18°C 57°F / 14°C 78% 29.98 in
(1015 mb)
NW 4.6 mph
(NW 7 kph)
- 10SM
06:35
Mostly Cloudy
64°F / 18°C 57°F / 14°C 78% 29.98 in
(1015 mb)
NW 3.5 mph
(NW 6 kph)
- 10SM
06:15
Overcast
61°F / 16°C 57°F / 14°C 88% 29.98 in
(1015 mb)
Calm - 10SM
05:55
Overcast
61°F / 16°C 57°F / 14°C 88% 29.98 in
(1015 mb)
Calm - 10SM
05:35
Overcast
61°F / 16°C 57°F / 14°C 88% 29.98 in
(1015 mb)
Calm - 10SM
05:15
Overcast
61°F / 16°C 57°F / 14°C 88% 29.95 in
(1014 mb)
Calm - 10SM
04:55
Overcast
61°F / 16°C 55°F / 13°C 83% 29.95 in
(1014 mb)
Calm - 10SM
04:35
Overcast
59°F / 15°C 55°F / 13°C 88% 29.95 in
(1014 mb)
Calm - 9SM
04:15
Overcast
59°F / 15°C 55°F / 13°C 88% 29.95 in
(1014 mb)
Calm - 7SM
03:55
Overcast
59°F / 15°C 55°F / 13°C 88% 29.95 in
(1014 mb)
Calm - 9SM
03:35
Overcast
59°F / 15°C 55°F / 13°C 88% 29.95 in
(1014 mb)
Calm - 8SM
03:15
Overcast
59°F / 15°C 55°F / 13°C 88% 29.95 in
(1014 mb)
Calm - 8SM
02:55
Overcast
59°F / 15°C 55°F / 13°C 88% 29.95 in
(1014 mb)
Calm - 8SM
02:35
Overcast
59°F / 15°C 55°F / 13°C 88% 29.95 in
(1014 mb)
N 4.6 mph
(N 7 kph)
- 10SM
02:15
Overcast
59°F / 15°C 55°F / 13°C 88% 29.92 in
(1013 mb)
Calm - 10SM
01:55
Overcast
59°F / 15°C 55°F / 13°C 88% 29.92 in
(1013 mb)
SW 3.5 mph
(SW 6 kph)
- 10SM
01:35
Overcast
59°F / 15°C 55°F / 13°C 88% 29.92 in
(1013 mb)
Calm - 10SM
01:15
Overcast
59°F / 15°C 55°F / 13°C 88% 29.95 in
(1014 mb)
Calm - 10SM
00:55
Overcast
59°F / 15°C 55°F / 13°C 88% 29.92 in
(1013 mb)
Calm - 10SM
00:35
Overcast
59°F / 15°C 55°F / 13°C 88% 29.95 in
(1014 mb)
Calm - 9SM
00:15
Overcast
59°F / 15°C 55°F / 13°C 88% 29.92 in
(1013 mb)
Calm - 10SM
Time Weather Temperature Dewpoint Humidity Pressure Winds Precip Visibility


Weather for websites

WeatherForYou.com, LLC is not responsible for any damages or problems caused by this service. Current weather conditions are obtained from the closest station including government and personal stations which may have varying degrees of accuracy. Weather forecasts are derived from the NOAA NDFD. Like all things, this site belongs to Jesus Christ... He just trusts us to maintain it. If you have any questions or comments email webmaster@weatherforyou.com

Copyright © 2015, WeatherForYou.com LLC. All rights reserved.